Probability
0 0 0 0 0 0 0 0 0 0 0 0 0 0 0 0 0 0 0 0 0 0 0 0 3 3 3 13 16 13 16 19 29 26 29 29 39 52
0 0 0 0 0 0 0 0 0 0 0 0 0 0 0 0 0 0 0 0 0 0 0 0 0 0 0 0 0 0 3 3 3 3 10 13 16 35
0 0 0 0 0 0 0 0 0 0 0 0 0 0 0 0 0 0 0 0 0 0 0 0 0 0 0 0 0 0 0 0 0 3 3 6 6 10
0 0 0 0 0 0 0 0 0 0 0 0 0 0 0 0 0 0 0 0 0 0 0 0 0 0 0 0 0 0 0 0 0 0 0 3 3 6
0 0 0 0 0 0 0 0 0 0 0 0 0 0 0 0 0 0 0 0 0 0 0 0 0 0 0 0 0 0 0 0 0 0 0 0 0 0
0 0 0 0 0 0 0 0 0 0 0 0 0 0 0 0 0 0 0 0 0 0 0 0 0 0 0 0 0 0 0 0 0 0 0 0 0 0
0 0 0 0 0 0 0 0 0 0 0 0 0 0 0 0 0 0 0 0 0 0 0 0 0 0 0 0 0 0 0 0 0 0 0 0 0 0
0 0 0 0 0 0 0 0 0 0 0 0 0 0 0 0 0 0 0 0 0 0 0 0 0 0 0 0 0 0 0 0 0 0 0 0 0 0
0 0 0 0 0 0 0 0 0 0 0 0 0 0 0 0 0 0 0 0 0 0 0 0 0 0 0 0 0 0 0 0 0 0 0 0 0 0
0 0 0 0 0 0 0 0 0 0 0 0 0 0 0 0 0 0 0 0 0 0 0 0 0 0 0 0 0 0 0 0 0 0 0 0 0 0
0 0 0 0 0 0 0 0 0 0 0 0 0 0 0 0 0 0 0 0 0 0 0 0 0 0 0 0 0 0 0 0 0 0 0 0 0 0
0 0 0 0 0 0 0 0 0 0 0 0 0 0 0 0 0 0 0 0 0 0 0 0 0 0 0 0 0 0 0 0 0 0 0 0 0 0
0 0 0 0 0 0 0 0 0 0 0 0 0 0 0 0 0 0 0 0 0 0 0 0 0 0 0 0 0 0 0 0 0 0 0 0 0 0
0 0 0 0 0 0 0 0 0 0 0 0 0 0 0 0 0 0 0 0 0 0 0 0 0 0 0 0 0 0 0 0 0 0 0 0 0 0
0 0 0 0 0 0 0 0 0 0 0 0 0 0 0 0 0 0 0 0 0 0 0 0 0 0 0 0 0 0 0 0 0 0 0 0 0 0
0 0 0 0 0 0 0 0 0 0 0 0 0 0 0 0 0 0 0 0 0 0 0 0 0 0 0 0 0 0 0 0 0 0 0 0 0 0
0 0 0 0 0 0 0 0 0 0 0 0 0 0 0 0 0 0 0 0 0 0 0 0 0 0 0 0 0 0 0 0 0 0 0 0 0 0
0 0 0 0 0 0 0 0 0 0 0 0 0 0 0 0 0 0 0 0 0 0 0 0 0 0 0 0 0 0 0 0 0 0 0 0 0 0
0 0 0 0 0 0 0 0 0 0 0 0 0 0 0 0 0 0 0 0 0 0 0 0 0 0 0 0 0 0 0 0 0 0 0 0 0 0
0 0 0 0 0 0 0 0 0 0 0 0 0 0 0 0 0 0 0 0 0 0 0 0 0 0 0 0 0 0 0 0 0 0 0 0 0 0
0 0 0 0 0 0 0 0 0 0 0 0 0 0 0 0 0 0 0 0 0 0 0 0 0 0 0 0 0 0 0 0 0 0 0 0 0 0
0 0 0 0 0 0 0 0 0 0 0 0 0 0 0 0 0 0 0 0 0 0 0 0 0 0 0 0 0 0 0 0 0 0 0 0 0 0
0 0 0 0 0 0 0 0 0 0 0 0 0 0 0 0 0 0 0 0 0 0 0 0 0 0 0 0 0 0 0 0 0 0 0 0 0 0
Height
5775 5775 5776 5777 5778 5779 5780 5782 5785 5787 5790 5793 5796 5799 5802 5806 5809 5813 5817 5820 5823 5827 5830 5833 5836 5839 5841 5844 5846 5849 5851 5854 5856 5858 5860 5861 5863 5865
5774 5774 5774 5775 5776 5777 5778 5779 5781 5784 5786 5789 5791 5794 5798 5801 5804 5808 5811 5814 5818 5821 5824 5827 5830 5833 5835 5838 5840 5843 5845 5847 5850 5852 5853 5855 5857 5858
5773 5773 5773 5773 5774 5774 5775 5777 5779 5781 5783 5785 5787 5790 5793 5796 5799 5802 5805 5808 5812 5815 5818 5821 5824 5826 5829 5831 5834 5836 5838 5840 5842 5844 5846 5848 5850 5851
5772 5771 5771 5771 5772 5772 5773 5774 5776 5777 5779 5781 5783 5785 5788 5791 5793 5796 5799 5802 5805 5808 5811 5814 5817 5819 5822 5824 5826 5828 5830 5832 5834 5836 5838 5840 5842 5843
5771 5770 5770 5770 5770 5770 5771 5771 5773 5774 5775 5777 5778 5780 5783 5785 5788 5790 5793 5796 5799 5802 5804 5807 5810 5812 5814 5817 5819 5821 5822 5824 5826 5828 5830 5831 5833 5835
5770 5769 5768 5768 5768 5768 5768 5768 5769 5770 5771 5773 5774 5775 5777 5780 5782 5784 5787 5789 5792 5795 5797 5800 5802 5804 5806 5809 5811 5812 5814 5815 5817 5819 5820 5822 5824 5826
5768 5767 5766 5766 5765 5765 5765 5765 5766 5766 5767 5768 5769 5771 5772 5774 5776 5778 5780 5783 5785 5788 5790 5793 5795 5797 5798 5800 5802 5803 5805 5806 5808 5809 5811 5812 5814 5816
5766 5765 5764 5763 5763 5762 5762 5762 5763 5763 5764 5764 5765 5766 5767 5769 5770 5772 5774 5777 5779 5781 5783 5785 5787 5789 5791 5792 5793 5795 5796 5797 5798 5800 5801 5802 5804 5805
5764 5763 5762 5761 5760 5760 5760 5759 5759 5759 5760 5760 5761 5761 5762 5763 5764 5766 5768 5770 5772 5774 5776 5778 5779 5781 5782 5784 5785 5786 5787 5788 5789 5790 5791 5792 5793 5794
5760 5760 5759 5758 5757 5757 5756 5756 5756 5755 5755 5756 5756 5756 5757 5757 5759 5760 5761 5763 5765 5767 5768 5770 5772 5773 5774 5775 5776 5777 5778 5778 5779 5780 5781 5781 5782 5783
5756 5756 5755 5754 5754 5753 5753 5752 5752 5751 5751 5751 5751 5751 5752 5752 5753 5754 5755 5757 5758 5760 5761 5763 5764 5765 5766 5767 5767 5768 5768 5769 5769 5770 5770 5771 5771 5772
5752 5751 5751 5750 5750 5749 5749 5748 5748 5747 5747 5747 5746 5746 5746 5747 5747 5748 5750 5751 5752 5753 5754 5755 5756 5757 5757 5758 5758 5759 5759 5759 5760 5760 5760 5760 5760 5761
5746 5746 5746 5745 5745 5744 5744 5743 5743 5743 5742 5742 5742 5741 5741 5741 5742 5742 5743 5744 5745 5746 5747 5748 5748 5748 5749 5749 5749 5749 5749 5749 5749 5749 5749 5749 5749 5749
5740 5740 5740 5740 5740 5739 5739 5738 5738 5738 5737 5737 5736 5736 5736 5736 5736 5737 5737 5738 5738 5739 5739 5740 5740 5740 5740 5740 5740 5740 5739 5739 5739 5739 5738 5738 5737 5737
5734 5734 5734 5734 5734 5733 5733 5733 5733 5732 5732 5731 5731 5731 5730 5730 5730 5730 5731 5731 5731 5731 5732 5732 5732 5732 5732 5732 5731 5731 5730 5729 5728 5728 5727 5726 5725 5725
5726 5726 5727 5727 5727 5727 5727 5727 5727 5726 5726 5726 5725 5725 5725 5725 5724 5724 5724 5724 5724 5724 5724 5724 5724 5724 5723 5723 5722 5721 5720 5719 5718 5717 5716 5715 5713 5712
5717 5718 5719 5719 5720 5720 5720 5720 5720 5720 5720 5720 5719 5719 5718 5718 5718 5718 5717 5717 5717 5716 5716 5715 5715 5714 5714 5713 5712 5711 5710 5709 5707 5706 5704 5703 5701 5699
5709 5710 5710 5711 5712 5712 5713 5713 5713 5713 5713 5713 5713 5712 5712 5711 5711 5710 5710 5710 5709 5708 5707 5707 5706 5705 5705 5703 5702 5701 5699 5698 5696 5694 5692 5691 5689 5687
5699 5700 5701 5702 5703 5704 5704 5705 5705 5706 5706 5705 5705 5705 5705 5704 5704 5703 5702 5701 5701 5700 5698 5697 5696 5695 5694 5693 5691 5689 5688 5686 5684 5682 5680 5678 5676 5674
5689 5690 5692 5693 5694 5695 5696 5696 5697 5697 5697 5697 5697 5697 5696 5696 5695 5695 5694 5693 5692 5691 5689 5688 5687 5685 5684 5683 5681 5678 5676 5674 5672 5669 5667 5665 5663 5660
5678 5680 5682 5683 5685 5686 5687 5687 5688 5688 5689 5689 5688 5688 5688 5687 5687 5686 5685 5684 5683 5681 5680 5678 5676 5675 5673 5671 5669 5667 5664 5661 5658 5656 5653 5651 5649 5647
5667 5669 5671 5673 5675 5676 5677 5678 5679 5679 5680 5680 5679 5679 5679 5678 5677 5677 5675 5674 5673 5671 5670 5668 5666 5664 5661 5659 5657 5654 5652 5648 5645 5641 5638 5636 5633 5631
5655 5658 5660 5662 5664 5666 5667 5668 5669 5670 5670 5670 5670 5670 5669 5669 5668 5667 5666 5664 5663 5661 5659 5657 5655 5652 5650 5647 5644 5642 5639 5636 5632 5629 5626 5621 5618 5615
Wind_Speed
4 5 6 8 8 10 12 14 15 17 18 20 21 22 24 25 26 27 27 28 28 28 27 27 27 28 28 29 29 28 28 27 27 26 26 27 27 26
4 4 6 7 8 9 10 12 14 16 17 18 20 22 24 25 26 27 28 28 28 28 28 28 29 29 29 29 29 30 30 30 30 29 29 28 28 29
4 5 6 7 8 9 10 11 13 15 17 18 19 20 22 24 26 27 28 29 30 30 30 29 29 30 30 30 30 30 31 32 32 32 32 31 30 30
5 5 6 6 7 9 10 11 12 15 17 18 19 20 20 22 24 26 26 27 29 29 29 30 30 30 30 31 31 32 32 33 34 34 34 34 33 33
5 5 6 6 7 9 10 11 12 14 16 18 19 20 21 21 23 25 26 26 28 29 29 30 30 30 31 31 32 32 33 34 35 36 36 36 36 35
6 6 6 6 7 8 10 10 11 13 15 17 18 20 21 21 22 23 25 26 27 28 29 30 30 32 32 32 32 32 33 35 35 36 36 37 37 37
7 7 7 7 7 8 9 10 11 12 14 15 17 18 20 22 22 23 24 26 26 27 28 29 29 30 30 31 31 32 32 34 35 36 36 37 38 39
8 8 8 8 8 8 9 9 10 11 13 15 16 18 19 21 22 22 23 24 25 26 26 27 28 29 29 30 31 31 32 33 34 36 37 38 38 39
10 9 9 9 8 9 9 10 11 11 12 14 15 16 18 19 21 22 22 23 24 25 26 27 28 29 29 30 30 31 32 33 34 34 36 38 39 40
11 11 10 10 9 9 10 11 11 12 13 14 15 15 16 17 19 21 22 23 24 24 25 27 28 28 29 29 30 31 32 33 33 34 36 38 39 40
13 12 12 12 11 11 11 11 12 12 13 14 15 16 16 17 18 19 21 22 23 24 25 26 27 28 29 29 30 31 32 32 33 34 35 36 38 40
15 14 14 13 13 12 12 12 12 13 13 14 15 16 16 17 18 19 21 22 23 24 25 25 27 28 28 29 30 32 32 33 33 34 35 37 39 40
17 16 15 15 14 14 14 14 14 14 14 15 15 16 17 18 19 20 21 22 23 24 25 25 26 27 27 29 30 32 33 33 35 36 37 38 40 41
20 18 17 17 16 16 16 15 15 15 15 15 16 16 16 18 19 20 21 22 22 23 24 25 26 27 28 29 30 31 33 34 35 36 37 38 40 41
22 21 20 19 19 18 17 17 16 16 16 16 16 16 16 17 19 19 21 22 23 24 25 26 27 28 29 30 31 32 33 34 35 36 37 38 40 40
25 24 23 22 21 20 20 19 18 18 18 17 17 17 18 18 19 20 22 23 24 25 26 27 28 29 30 31 32 33 34 35 36 37 38 38 39 40
27 26 25 24 23 22 22 21 20 20 20 20 19 19 19 19 20 21 22 23 24 25 26 27 28 29 30 31 32 33 34 35 36 37 39 40 41 42
30 29 27 26 25 25 24 23 23 22 22 21 21 21 21 21 22 22 23 24 25 26 27 28 29 30 31 32 33 34 35 36 37 38 39 40 41 42
31 30 29 28 27 26 25 25 24 24 24 23 23 23 23 24 24 24 25 26 27 27 28 29 30 32 32 32 34 35 36 37 38 39 39 40 40 41
33 32 31 30 29 28 27 27 26 26 25 25 25 25 25 26 26 26 27 28 29 29 30 31 32 33 34 35 35 36 38 38 39 40 40 41 41 42
35 34 33 32 31 30 29 29 28 27 27 26 26 27 27 27 27 28 29 29 30 31 32 32 33 34 35 36 37 38 39 40 41 41 42 43 43 44
36 35 34 33 32 31 30 30 29 29 28 28 28 28 28 28 29 29 30 31 31 32 33 34 35 36 37 38 38 39 40 41 42 42 43 44 44 44
38 37 35 34 33 33 32 31 30 30 29 29 29 29 29 29 30 30 31 32 32 33 34 35 36 37 38 39 39 40 40 40 41 42 43 44 45 45
Wind_Direction
277 256 239 229 232 233 231 227 223 221 220 220 221 222 224 225 225 226 227 230 230 230 231 234 234 238 239 238 238 240 243 244 246 247 249 250 250 251
281 264 246 239 240 237 233 224 221 222 223 223 225 225 227 227 227 228 230 231 232 231 232 236 238 240 241 241 242 243 244 246 248 249 251 252 251 252
285 269 258 251 245 242 234 229 227 227 227 229 231 231 231 230 230 231 231 232 234 235 235 237 239 241 243 244 244 245 246 247 249 250 251 252 253 254
298 282 268 260 254 246 241 238 236 233 233 233 235 236 236 234 233 233 233 234 235 235 236 238 241 243 244 246 248 249 249 250 250 251 251 252 254 255
308 293 277 270 265 258 253 249 245 241 239 240 240 239 239 238 237 236 237 237 237 237 239 241 242 244 246 248 250 252 252 252 253 253 253 253 254 255
305 296 284 275 269 264 260 255 252 247 245 245 243 242 242 242 241 241 241 240 240 240 242 244 246 246 248 250 251 253 255 254 255 255 255 254 254 255
304 299 291 285 276 269 264 262 257 253 250 249 247 246 246 246 247 247 245 244 244 244 244 246 248 248 250 252 254 256 257 258 257 256 257 257 256 256
296 297 295 292 285 276 271 270 266 261 256 253 251 251 249 248 249 248 247 246 247 246 246 248 250 251 252 254 256 257 258 258 258 258 258 259 259 259
287 287 289 289 287 280 273 273 271 269 263 259 258 256 253 250 249 248 247 248 248 249 248 249 251 254 254 256 257 258 259 259 260 260 260 259 258 259
282 281 282 283 281 279 276 274 273 272 269 265 263 259 256 254 253 251 249 250 251 252 251 251 253 256 258 258 259 260 260 261 261 262 263 262 260 260
276 276 276 278 278 278 277 275 275 272 271 270 267 261 257 257 256 253 252 252 254 255 254 254 256 260 261 262 263 264 264 264 264 264 264 264 263 263
271 271 272 273 274 274 275 275 275 273 271 270 268 262 260 260 258 257 256 256 256 258 258 257 259 261 263 264 265 265 266 267 266 266 265 266 265 265
268 268 268 269 271 272 273 273 273 273 271 269 269 268 263 261 260 259 259 260 260 260 260 260 262 264 265 265 266 267 268 268 268 269 269 269 268 267
265 265 264 266 268 270 271 271 271 272 273 272 271 272 268 263 261 261 261 262 263 263 262 263 265 266 267 268 269 270 270 270 270 270 270 270 270 269
262 262 262 264 265 267 269 270 269 270 271 271 271 271 269 267 264 263 263 265 266 266 265 266 268 270 271 272 272 272 273 273 272 273 273 273 273 272
259 260 261 262 263 265 266 268 268 269 270 270 270 271 271 270 269 269 269 270 270 270 269 269 271 273 273 274 274 274 275 275 275 276 276 276 276 276
258 259 260 261 262 263 264 265 266 268 269 270 271 271 271 271 272 272 273 273 273 273 274 275 276 276 276 276 277 277 278 278 278 277 278 277 277 276
257 257 258 260 261 261 262 262 264 267 268 270 271 271 273 274 275 275 276 276 277 277 277 278 278 278 278 278 279 280 280 280 280 280 280 279 278 277
256 257 257 258 259 261 262 263 264 266 268 269 270 271 273 274 276 278 278 278 279 279 280 280 280 281 281 281 282 282 281 281 282 282 281 280 279 278
255 255 256 257 258 259 261 262 264 266 268 269 270 272 273 275 277 279 280 280 280 281 282 282 283 283 283 283 284 284 284 285 285 285 283 282 281 281
254 255 256 257 258 259 261 262 264 265 267 269 271 273 274 275 277 279 281 282 282 282 283 284 285 286 286 286 286 286 286 287 287 286 285 284 283 283
253 254 255 256 257 259 260 262 264 265 267 269 271 273 275 277 278 280 282 283 284 285 285 286 286 287 288 288 288 288 288 288 288 287 287 286 286 285
253 254 254 255 256 258 260 262 264 265 267 269 271 273 276 279 280 282 284 285 286 286 287 287 289 290 290 290 290 290 289 289 289 290 290 289 289 288